Regional Weather Roundup
Issued by NWS Little Rock, AR

Home | Current Version | Previous Version | Text Only | Print | Product List | Glossary Off
Versions: 1 2 3 4 5 6 7 8 9 10 11 12 13 14 15 16 17 18 19 20 21 22 23 24 25 26 27

000
ASUS44 KLZK 240505
RWRLZK

WEATHER ROUNDUP FOR ARKANSAS
NATIONAL WEATHER SERVICE LITTLE ROCK AR
1200 AM CDT THU APR 24 2014

NOTE: "FAIR" INDICATES FEW OR NO CLOUDS BELOW 12,000 FEET WITH NO
SIGNIFICANT WEATHER AND/OR OBSTRUCTIONS TO VISIBILITY.

ARZ001-003-010-029-240600-
NORTHWEST ARKANSAS

CITY           SKY/WX    TMP DP  RH WIND       PRES   REMARKS
FAYETTEVILLE   CLOUDY    67  47  48 S6        29.85R
FORT SMITH     CLOUDY    65  55  70 NE6       29.84R
HARRISON       CLOUDY    60  44  55 SE9       29.88F
BENTONVILLE    CLOUDY    64  46  52 SE12      29.85R
ROGERS         CLOUDY    66  46  48 SE12      29.86R
SILOAM SPGS    CLOUDY    66  46  48 S10       29.85R
HIGHFILL       CLOUDY    64  49  57 SE10      29.83S
$$

ARZ004-005-016-240600-
NORTH CENTRAL ARKANSAS

CITY           SKY/WX    TMP DP  RH WIND       PRES   REMARKS
BATESVILLE     MOCLDY    61  43  51 SE6       29.92S
FLIPPIN        MOCLDY    61  39  44 E5        29.89F
MTN HOME       MOCLDY    61  41  47 SE8       29.88F
$$

ARZ040-041-240600-
WEST CENTRAL ARKANSAS

CITY           SKY/WX    TMP DP  RH WIND       PRES   REMARKS
MENA           PTCLDY   N/A N/A N/A CALM      29.87S
MOUNT IDA      PTCLDY    67  48  50 SE9       29.85F
$$

ARZ009-017-025-026-028-240600-
NORTHEAST ARKANSAS

CITY           SKY/WX    TMP DP  RH WIND       PRES   REMARKS
CORNING        FAIR      54  43  66 E7        29.95S
JONESBORO      PTCLDY    54  44  69 NE5       29.94S
NEWPORT        MOCLDY    58  46  64 SE8       29.94S
WALNUT RIDGE   PTCLDY    57  39  51 E7        29.93F
BLYTHEVILLE    CLEAR     55  42  61 E10       29.95R
$$

ARZ022-023-033-042-044-240600-
CENTRAL ARKANSAS

CITY           SKY/WX    TMP DP  RH WIND       PRES   REMARKS
LITTLE ROCK    MOCLDY    61  46  57 E5        29.90F
N LITTLE ROCK  MOCLDY    63  49  61 E7        29.90F
JACKSONVILLE   PTCLDY    56  48  75 E2        29.91F
SEARCY         MOCLDY    54  50  86 CALM      29.93F FOG
HOT SPRINGS    CLEAR     61  48  62 E7        29.89F
RUSSELLVILLE   MOCLDY    65  46  50 CALM      29.87F
CLINTON        FAIR      54  50  87 CALM      29.91F
$$

ARZ036-240600-
EAST ARKANSAS

CITY           SKY/WX    TMP DP  RH WIND       PRES   REMARKS
WEST MEMPHIS   CLEAR     62  40  44 E5        29.93R HAZE
$$

ARZ050-053-066-070-073-240600-
SOUTHWEST ARKANSAS

CITY           SKY/WX    TMP DP  RH WIND       PRES   REMARKS
ARKADELPHIA    FAIR      61  58  90 CALM      29.89F
CAMDEN         CLEAR     57  48  72 MISG      29.89F
TEXARKANA      CLEAR     69  51  52 SE9       29.86S
EL DORADO      CLEAR     62  49  62 E6        29.89F
DE QUEEN       CLEAR     67  56  67 E7        29.82F
$$

ARZ056-057-069-240600-
SOUTHEAST ARKANSAS

CITY           SKY/WX    TMP DP  RH WIND       PRES   REMARKS
PINE BLUFF     CLEAR     60  48  64 CALM      29.92S
STUTTGART      PTCLDY    61  46  59 S5        29.93S
MONTICELLO     CLEAR     58  49  72 CALM      29.91F

$$





USA.gov is the U.S. government's official web portal to all federal, state and local government web resources and services.